Wind_Speed
8 9 11 11 11 11 12 12 13 12 14 15 15 16 16 16 16 16 15 15 15 14 14 14 13 13 12 12 12 13 13 14 14 15 15 16 17 17 17 18 18 17 17 16
10 11 12 13 13 12 13 14 14 15 15 15 16 17 17 17 16 17 17 16 16 15 15 15 14 14 14 13 13 13 13 14 14 15 15 16 16 16 16 17 17 17 16 16
11 13 14 13 13 14 15 15 16 16 15 15 16 17 17 17 17 17 18 17 17 17 16 16 16 15 15 15 14 14 14 14 15 15 15 15 15 16 16 16 16 17 16 16
13 14 15 15 16 16 17 17 17 17 17 17 17 17 17 17 17 17 18 18 18 18 18 18 17 17 16 16 16 15 15 15 15 15 15 16 16 15 16 16 16 16 16 16
16 16 17 16 17 17 18 18 19 19 18 18 18 19 18 18 18 18 18 19 19 19 19 19 19 18 18 17 17 17 16 16 16 16 16 16 16 16 16 16 16 16 16 16
18 18 19 18 19 19 20 21 20 20 20 20 20 20 20 19 19 19 20 20 20 20 20 20 20 20 20 19 19 18 18 18 17 17 17 17 16 16 16 16 16 16 16 16
20 21 21 21 21 21 23 23 21 22 22 22 22 23 22 21 21 21 21 21 22 22 22 22 22 22 22 21 21 20 20 19 19 19 18 18 17 17 17 17 17 17 17 17
23 24 24 24 24 24 25 25 25 25 25 25 25 25 24 24 24 24 23 23 23 23 24 24 24 24 23 23 22 22 21 21 21 20 19 19 19 18 18 18 18 18 18 17
27 28 28 28 28 28 29 29 29 29 28 27 27 27 27 26 26 26 26 25 25 25 25 25 25 26 25 25 25 24 23 23 22 22 21 21 20 20 20 19 19 19 19 19
31 31 31 32 33 33 33 32 32 32 31 30 30 29 29 29 29 28 28 28 27 27 27 27 27 27 27 27 27 26 25 25 24 24 23 23 22 22 22 21 21 21 20 20
35 35 36 35 35 35 36 36 36 35 34 34 33 32 32 32 31 31 31 30 30 30 29 29 29 29 29 29 28 28 28 27 26 26 25 25 24 24 24 23 23 22 22 22
38 38 40 40 39 39 39 39 38 37 37 36 36 35 35 34 34 34 34 33 32 32 32 31 31 31 31 31 30 30 30 29 29 28 27 27 26 26 25 25 24 24 24 24
42 41 42 43 43 43 43 42 41 41 40 40 40 39 38 37 36 36 36 35 34 34 34 33 33 33 33 33 33 32 32 32 31 30 29 28 28 27 27 26 26 26 26 26
44 44 45 45 45 46 46 45 45 44 44 43 42 42 41 40 40 39 38 37 37 36 36 36 35 34 34 34 34 34 34 33 33 32 32 31 30 30 29 29 28 28 28 28
47 47 47 47 47 48 48 48 47 47 47 46 45 45 44 43 43 42 42 41 40 40 39 38 38 37 37 37 36 36 36 35 35 34 34 34 33 32 31 31 30 30 30 30
49 50 50 50 50 50 50 50 50 49 49 48 48 48 47 46 45 45 44 43 43 42 41 41 40 39 39 39 39 38 38 37 37 37 36 36 35 35 34 33 33 32 32 32
51 51 51 51 51 52 52 51 51 50 50 50 49 49 48 48 47 47 46 46 45 44 44 43 42 41 41 41 40 40 40 39 39 39 39 38 37 37 36 36 35 35 34 34
52 52 52 52 52 52 52 52 52 51 50 50 49 48 48 48 48 48 47 47 46 45 45 45 44 43 43 43 42 42 42 41 41 41 40 40 39 39 39 38 38 37 37 36
52 52 52 52 52 52 52 52 52 51 50 49 49 48 48 48 47 47 47 47 47 46 45 45 45 45 44 44 43 43 43 43 43 42 42 42 42 41 41 40 40 39 39 39
52 52 52 51 51 51 51 51 50 50 49 49 49 48 48 47 47 47 47 47 46 46 45 45 46 46 45 45 45 45 44 44 45 44 44 44 43 42 42 42 41 41 41 40
51 51 50 49 48 47 47 47 47 48 48 48 48 48 48 47 47 47 47 46 46 45 45 45 46 45 45 45 45 46 46 46 46 46 46 45 44 44 43 43 43 43 42 42
49 48 47 46 45 44 44 44 45 45 46 46 46 47 47 47 46 47 47 46 46 45 45 45 45 46 46 46 47 47 47 46 46 46 47 46 46 45 44 44 44 43 43 43
47 46 45 43 43 43 42 43 43 44 44 45 45 45 46 45 45 45 45 44 44 44 45 45 45 45 46 46 46 46 46 47 47 47 46 46 46 46 45 44 44 44 44 43
46 44 43 42 42 42 41 42 42 42 43 43 44 44 44 44 44 44 44 44 43 43 44 45 45 45 45 46 45 44 45 45 45 46 46 46 46 45 45 44 44 44 44 43
44 43 42 41 41 40 40 40 41 41 42 42 42 42 43 43 43 43 43 44 44 44 43 43 43 43 43 44 44 43 43 43 43 44 44 44 44 44 44 44 43 43 42 42
43 42 41 41 40 40 40 40 40 40 40 40 40 40 40 41 42 42 43 43 44 43 43 42 42 42 42 42 42 42 42 42 41 42 42 42 42 43 42 42 42 42 41 41
42 41 40 40 40 40 39 40 39 39 39 39 39 39 39 39 40 40 41 42 42 42 42 41 41 41 41 40 40 41 41 40 40 41 41 41 41 41 41 41 41 42 42 42
Wind_Direction
271 272 276 279 281 276 272 271 271 270 271 272 275 279 280 277 272 269 270 269 269 269 269 270 276 283 290 297 304 311 318 324 330 334 339 344 348 352 355 358 360 2 4 6
274 278 280 281 282 282 278 276 275 274 275 273 274 276 278 275 271 268 270 270 269 269 268 268 271 277 284 291 297 304 310 316 322 328 333 337 341 345 349 352 355 358 360 1
274 278 280 284 286 282 279 277 278 278 279 275 273 276 277 275 272 270 270 271 269 268 268 267 268 273 279 285 290 297 303 308 315 320 326 330 334 338 342 346 349 352 355 357
280 278 279 285 283 282 280 278 279 278 276 275 275 277 277 275 272 270 270 270 269 268 268 267 267 270 275 280 285 290 296 301 306 312 318 323 326 330 335 338 340 344 347 349
283 282 283 287 286 284 281 279 278 278 279 276 274 275 275 275 272 271 271 270 269 268 268 267 267 269 272 276 281 286 290 295 300 305 310 314 318 322 327 331 333 335 338 340
284 282 283 285 285 284 281 280 278 278 278 276 272 273 275 276 274 273 272 269 268 267 267 267 267 268 269 273 277 282 285 289 294 298 303 307 310 314 319 323 327 328 330 332
283 283 284 284 282 281 279 280 280 278 277 276 274 273 274 274 273 272 272 269 267 266 266 266 266 267 268 270 274 278 281 285 289 292 296 300 303 306 310 314 318 321 323 324
283 281 280 283 280 278 278 279 278 278 277 277 276 275 273 273 273 271 271 270 268 267 266 265 265 266 267 269 271 274 278 281 284 287 290 294 297 300 302 306 310 313 316 317
279 278 280 280 279 278 278 278 278 277 277 277 275 274 272 271 271 271 270 269 268 267 266 265 264 265 266 268 269 271 274 277 279 282 285 288 291 294 296 299 303 306 308 311
278 278 277 277 276 277 277 277 277 276 276 275 274 273 272 270 270 270 270 269 268 268 267 265 264 264 265 266 267 269 271 274 276 279 281 284 287 290 292 294 297 299 301 304
277 277 275 274 275 274 274 274 275 275 275 275 273 272 272 271 269 269 269 269 268 268 267 265 264 264 265 266 267 268 270 271 274 276 279 281 283 285 288 290 292 294 296 299
278 276 274 275 274 274 274 274 274 274 274 274 273 271 270 270 269 268 268 269 268 267 266 265 264 264 264 265 266 267 269 270 272 273 275 278 279 281 283 285 287 289 292 294
278 277 275 275 275 275 274 274 274 274 273 272 272 270 269 269 268 268 268 268 268 267 266 265 264 264 264 265 265 266 268 269 271 272 273 274 276 278 279 281 283 285 288 291
278 277 276 275 275 274 274 273 273 272 272 271 271 270 269 269 268 268 267 267 267 266 265 265 264 263 263 264 264 265 266 268 269 270 271 272 273 274 275 277 279 282 284 287
278 277 277 276 275 274 274 274 273 272 271 271 270 269 268 268 267 267 267 266 266 265 265 264 264 263 262 263 263 264 265 266 267 268 269 270 271 272 274 275 277 279 281 284
278 278 277 277 276 275 274 274 273 273 271 271 270 268 267 267 266 266 266 265 265 264 264 263 263 263 262 262 262 263 264 264 265 266 267 269 270 271 272 273 275 277 279 281
278 277 277 276 276 275 274 274 273 272 271 270 270 268 267 266 265 264 264 264 264 263 263 262 262 261 261 260 261 261 262 263 264 265 267 268 269 270 271 272 273 275 278 280
280 279 278 277 277 276 275 273 273 272 270 269 268 268 266 265 265 264 263 263 263 263 263 262 261 261 260 261 260 260 261 262 263 265 266 267 268 269 270 271 273 274 276 278
280 280 280 279 278 277 276 274 273 271 270 268 267 266 266 265 264 264 263 262 262 262 262 262 260 259 260 260 260 260 261 262 263 264 265 266 267 268 269 270 272 274 275 276
280 280 280 280 279 277 276 274 272 271 269 269 267 265 265 264 264 263 262 261 261 261 261 260 260 259 258 259 260 261 261 261 262 263 264 266 267 268 269 270 271 273 274 275
281 281 280 280 279 277 275 274 273 271 269 268 266 265 264 264 263 263 261 260 260 260 259 259 258 258 258 259 260 260 260 261 262 263 264 265 266 267 268 269 270 272 274 275
281 280 279 278 277 276 275 274 273 271 269 268 266 265 264 263 262 262 262 260 259 259 259 258 258 259 259 259 260 260 261 261 262 263 264 264 264 265 267 268 269 271 273 275
280 279 278 277 276 275 274 273 273 272 269 268 266 265 265 264 262 262 261 260 260 259 259 258 259 260 260 260 261 261 261 261 262 262 263 264 264 265 265 267 268 270 272 274
278 276 275 275 275 273 272 272 272 272 271 269 268 266 266 265 263 262 261 260 260 260 260 259 259 260 260 260 260 261 262 262 262 262 263 264 265 265 266 267 268 269 271 273
277 274 273 273 273 272 273 274 274 273 271 271 270 269 267 266 265 264 262 260 259 260 260 261 260 260 260 260 260 260 261 261 262 262 263 264 265 266 267 267 268 269 270 271
275 274 273 273 274 274 273 273 274 273 272 272 271 270 268 267 266 265 263 261 259 259 260 260 260 260 260 260 259 259 259 260 260 261 262 263 264 265 265 266 266 268 269 270
274 274 273 273 273 273 273 274 275 274 273 272 271 270 269 268 266 264 263 262 261 260 260 260 259 259 259 259 259 259 259 259 259 260 260 261 262 262 263 264 266 267 268 269
Height
5816 5817 5817 5817 5817 5817 5818 5818 5818 5818 5817 5817 5817 5816 5816 5815 5815 5816 5816 5816 5816 5816 5817 5817 5817 5816 5816 5815 5814 5813 5811 5810 5808 5805 5803 5800 5797 5794 5791 5788 5785 5782 5778 5775
5815 5815 5815 5815 5815 5815 5815 5814 5814 5814 5814 5814 5813 5812 5812 5812 5812 5812 5812 5813 5813 5813 5813 5813 5813 5813 5813 5812 5812 5810 5809 5808 5806 5804 5802 5799 5797 5794 5791 5788 5785 5782 5779 5776
5812 5812 5812 5812 5812 5812 5811 5811 5811 5810 5811 5810 5809 5809 5808 5808 5808 5808 5809 5809 5809 5809 5809 5809 5809 5809 5809 5809 5808 5808 5807 5805 5804 5802 5800 5798 5795 5793 5790 5787 5785 5782 5779 5776
5809 5810 5808 5811 5809 5808 5807 5807 5807 5806 5806 5805 5805 5805 5804 5804 5804 5804 5804 5804 5804 5804 5805 5805 5805 5805 5805 5805 5805 5804 5803 5802 5801 5799 5797 5795 5793 5791 5789 5786 5784 5781 5779 5776
5805 5805 5805 5806 5804 5804 5803 5803 5802 5802 5802 5801 5801 5800 5800 5799 5799 5799 5800 5800 5800 5800 5800 5800 5800 5801 5801 5801 5801 5800 5800 5799 5797 5796 5794 5793 5791 5789 5787 5784 5782 5780 5777 5775
5801 5800 5800 5802 5800 5799 5799 5797 5797 5796 5796 5796 5796 5795 5795 5795 5794 5795 5795 5795 5795 5795 5795 5795 5795 5796 5796 5796 5796 5796 5795 5794 5793 5792 5791 5789 5788 5786 5784 5782 5780 5778 5775 5773
5796 5795 5795 5795 5794 5794 5794 5793 5791 5790 5790 5790 5790 5790 5790 5789 5789 5789 5789 5789 5789 5789 5789 5790 5790 5790 5790 5791 5791 5791 5790 5790 5789 5788 5787 5786 5784 5782 5781 5779 5777 5775 5773 5771
5790 5789 5790 5788 5787 5787 5786 5785 5784 5784 5784 5784 5784 5784 5784 5784 5783 5783 5783 5783 5783 5783 5783 5784 5784 5784 5784 5785 5785 5785 5784 5784 5784 5783 5782 5781 5780 5778 5777 5775 5773 5772 5770 5768
5784 5784 5782 5780 5779 5779 5778 5778 5777 5777 5777 5777 5777 5777 5777 5777 5777 5776 5776 5776 5776 5776 5777 5777 5777 5777 5778 5778 5778 5778 5778 5778 5777 5777 5776 5775 5774 5773 5772 5771 5769 5768 5766 5764
5775 5774 5773 5772 5771 5770 5769 5769 5769 5768 5768 5769 5769 5769 5769 5769 5769 5769 5769 5769 5769 5769 5769 5769 5769 5770 5770 5771 5771 5771 5771 5771 5771 5770 5770 5769 5768 5767 5766 5765 5764 5762 5761 5759
5765 5765 5763 5763 5762 5760 5760 5759 5759 5759 5759 5759 5759 5759 5759 5760 5760 5760 5760 5760 5760 5760 5761 5761 5761 5762 5762 5762 5763 5763 5763 5763 5763 5763 5763 5762 5762 5761 5760 5759 5758 5757 5755 5754
5754 5754 5752 5751 5750 5749 5748 5748 5748 5748 5748 5748 5749 5749 5749 5749 5750 5750 5750 5751 5751 5751 5751 5752 5752 5753 5753 5754 5754 5754 5755 5755 5755 5755 5755 5755 5754 5753 5753 5752 5751 5750 5749 5748
5741 5741 5739 5738 5738 5737 5736 5736 5736 5736 5736 5737 5737 5737 5737 5738 5739 5739 5739 5740 5741 5741 5741 5742 5742 5743 5744 5744 5744 5745 5745 5746 5746 5746 5746 5746 5746 5745 5745 5744 5743 5743 5742 5740
5728 5727 5726 5725 5724 5724 5723 5722 5722 5722 5722 5723 5724 5724 5725 5725 5726 5727 5728 5728 5729 5730 5730 5731 5732 5733 5733 5734 5734 5735 5735 5736 5736 5736 5737 5737 5737 5737 5736 5736 5735 5735 5734 5733
5714 5712 5711 5710 5710 5709 5708 5708 5708 5708 5708 5709 5710 5710 5711 5711 5712 5714 5714 5715 5716 5717 5718 5719 5720 5721 5722 5722 5723 5724 5725 5725 5725 5726 5726 5727 5727 5727 5727 5727 5726 5726 5725 5724
5698 5697 5695 5695 5694 5694 5693 5693 5693 5693 5693 5694 5695 5695 5696 5697 5698 5699 5700 5701 5703 5704 5705 5706 5707 5709 5709 5710 5711 5712 5713 5714 5714 5715 5715 5716 5716 5716 5716 5716 5716 5716 5716 5715
5682 5681 5680 5679 5678 5677 5677 5676 5676 5677 5677 5678 5679 5679 5680 5681 5682 5684 5685 5686 5688 5689 5691 5692 5694 5695 5696 5697 5699 5700 5701 5701 5702 5703 5703 5704 5705 5705 5705 5705 5705 5706 5705 5705
5665 5664 5663 5662 5661 5660 5660 5660 5660 5660 5661 5661 5662 5663 5664 5665 5667 5668 5670 5671 5672 5674 5676 5678 5679 5681 5682 5684 5685 5686 5687 5688 5689 5690 5691 5692 5693 5693 5693 5694 5694 5694 5694 5693
5649 5647 5646 5645 5644 5643 5643 5643 5643 5643 5644 5644 5645 5647 5648 5649 5651 5652 5654 5655 5657 5659 5661 5663 5664 5666 5668 5669 5671 5672 5674 5675 5676 5677 5678 5679 5679 5680 5681 5681 5682 5682 5682 5681
5633 5632 5630 5629 5628 5627 5626 5626 5626 5626 5627 5628 5629 5630 5632 5633 5635 5636 5638 5640 5642 5644 5646 5647 5649 5651 5653 5655 5656 5658 5659 5661 5662 5663 5664 5665 5666 5667 5668 5668 5669 5669 5669 5669
5617 5616 5614 5613 5612 5611 5610 5610 5610 5610 5611 5611 5613 5614 5616 5617 5619 5620 5622 5625 5627 5628 5630 5632 5634 5636 5638 5640 5642 5643 5645 5646 5647 5649 5650 5651 5652 5653 5654 5655 5655 5656 5656 5656
5601 5600 5599 5598 5597 5596 5596 5595 5595 5595 5595 5596 5597 5598 5600 5601 5603 5605 5607 5609 5611 5613 5615 5616 5619 5621 5623 5624 5626 5628 5629 5631 5632 5634 5635 5636 5637 5639 5640 5641 5641 5642 5642 5642
5586 5585 5584 5583 5583 5582 5581 5581 5581 5581 5581 5581 5582 5583 5584 5586 5588 5590 5592 5594 5595 5597 5599 5601 5603 5605 5607 5609 5610 5612 5614 5616 5617 5619 5620 5621 5623 5624 5625 5626 5627 5628 5628 5628
5572 5571 5570 5569 5568 5568 5568 5567 5567 5566 5566 5567 5568 5568 5569 5571 5573 5574 5576 5578 5580 5582 5584 5586 5588 5589 5591 5593 5595 5597 5599 5601 5602 5604 5605 5607 5608 5609 5610 5612 5613 5614 5614 5614
5557 5557 5557 5556 5555 5555 5554 5553 5553 5553 5553 5553 5553 5554 5555 5556 5558 5560 5561 5563 5565 5567 5569 5571 5572 5574 5576 5578 5580 5583 5584 5586 5587 5589 5591 5592 5593 5595 5596 5597 5598 5599 5600 5601
5544 5543 5543 5542 5542 5541 5541 5540 5540 5540 5539 5539 5540 5540 5541 5542 5543 5545 5546 5548 5550 5552 5554 5556 5558 5560 5562 5564 5566 5568 5570 5571 5573 5575 5576 5578 5579 5581 5582 5583 5585 5585 5586 5587
5530 5530 5529 5529 5529 5528 5528 5527 5527 5527 5526 5526 5526 5526 5527 5528 5529 5530 5532 5534 5536 5538 5540 5542 5544 5546 5548 5550 5552 5554 5556 5557 5559 5561 5562 5564 5566 5567 5569 5570 5571 5572 5573 5573